[[{"header":{"parameterUnit":"m.s-1","parameterCategory":1,"la1":30.2991,"la2":30.254,"lo1":-89.0895,"lo2":-89.0444,"dy":0.0017,"dx":0.0017,"nx":28,"ny":28,"refTime":"2023-07-31T03:00:00:Z","depth":0,"parameterNumber":2,"parameterNumberName":"U-component_of_WINDS"},"data":[0,0,0,0,0,0,0,0,0,0,0,0,0,0,0,0,0,0,0,0,0,0,0,0,0,0,0,0,0,0,0,0,0,0,0,0,0,0,0,0,0,0,0,0,0,0,0,0,0,0,0,0,0,0,0,0,0,0,2.2037,2.2039,0,2.2185,2.2187,2.2188,2.2188,2.2187,2.2185,2.2183,2.234,2.2346,2.2352,0,0,0,0,0,0,0,0,0,0,0,0,0,2.1761,2.1766,2.2037,2.2039,2.2041,2.2185,2.2187,2.2189,2.2189,2.2186,2.2184,2.2182,2.2338,2.2345,2.2352,0,0,0,0,0,0,0,0,0,0,0,0,0,2.1892,2.1767,2.2037,2.2058,2.2062,2.2184,2.2187,2.2189,2.2189,2.2186,2.2184,2.2181,2.2336,2.2344,2.2353,2.2466,0,0,2.238,2.2384,0,0,0,0,0,0,0,0,2.1884,2.1902,2.2053,2.2057,2.2061,2.2165,2.2147,2.2282,2.219,2.2141,2.2183,2.2179,2.2284,2.2297,2.2332,2.2474,2.248,2.2381,2.2387,2.2391,2.2393,0,0,0,0,0,0,0,2.1875,2.1896,2.2096,2.2055,2.206,2.2062,2.2077,2.2172,2.2227,2.2145,2.2145,2.2163,2.2286,2.2323,2.2335,2.2483,2.2381,2.2389,2.2395,2.2398,2.2724,2.2727,0,0,0,0,0,0,2.1861,2.1888,2.2091,2.21,2.1964,2.2069,2.2087,2.2135,2.2226,2.2237,2.2165,2.2162,2.2309,2.2325,2.2341,2.2478,2.239,2.2399,2.2404,2.2721,2.2725,2.2728,0,0,0,0,0,0,2.1855,2.1879,2.2085,2.1994,2.2021,2.2077,2.2131,2.2139,2.2176,2.2241,2.2251,2.2192,2.2307,2.2328,2.2434,2.2484,2.2403,2.2411,2.2717,2.2722,2.2727,2.2754,0,0,0,0,0,0,2.1847,2.1877,2.1919,2.1995,2.2025,2.2175,2.2134,2.2144,2.2191,2.2188,2.2269,2.228,2.2307,2.2421,2.2443,2.2495,2.2418,2.2713,2.2719,2.2725,2.2749,2.276,2.2769,0,0,0,0,0,2.1837,2.1923,2.1922,2.1946,2.2079,2.2177,2.2195,2.2222,2.2195,2.2238,2.228,2.2278,2.2475,2.2432,2.2457,2.2512,2.271,2.2717,2.2725,2.2745,2.2758,2.2768,0,0,0,0,0,0,2.1854,2.1933,2.1933,2.2045,2.2104,2.2177,2.2233,2.2235,2.2305,2.23,2.2333,2.2351,2.2456,2.2495,2.2446,2.2626,2.2589,2.2602,2.2596,2.2609,2.2618,2.2606,2.2426,0,0,0,0,0,2.187,2.1941,2.2008,2.21,2.213,2.2176,2.222,2.2236,2.23,2.2325,2.2375,2.2438,2.2514,2.2564,2.2638,2.2755,2.2773,2.2806,2.2815,2.2823,2.2833,2.2897,2.2912,2.2753,2.2753,2.2752,0,0,2.1905,2.1957,2.2001,2.2105,2.2153,2.2227,2.2198,2.2278,2.2334,2.2338,2.244,2.2479,2.2552,2.2664,2.2716,2.2699,2.2881,2.2832,2.2838,2.2844,2.2906,2.2921,2.2935,2.2758,2.2757,2.2756,0,0,2.2006,2.2053,2.2134,2.2183,2.2254,2.2285,2.2304,2.2378,2.2403,2.2505,2.251,2.2578,2.2709,2.276,2.2803,2.2924,2.2924,2.2947,2.2997,2.3059,2.3072,2.3083,2.3125,2.314,2.2958,2.2958,2.2958,0,2.204,2.2151,2.2177,2.2257,2.2303,2.2308,2.2391,2.2438,2.2531,2.2563,2.2543,2.2706,2.2756,2.288,2.2909,2.2944,2.2968,2.2938,2.3068,2.3079,2.309,2.3131,2.3146,2.296,2.296,2.296,2.2959,0,2.219,2.2267,2.2324,2.2411,2.2464,2.2546,2.2585,2.2636,2.2647,2.268,2.2785,2.2844,2.293,2.2961,2.2974,2.3086,2.3073,2.306,2.3024,2.3107,2.3146,2.3161,2.2963,2.2962,2.2962,2.2961,0,0,2.2304,2.2404,2.2425,2.2464,2.2544,2.2605,2.2687,2.2769,2.2811,2.2876,2.2946,2.3056,2.3044,2.3093,2.3112,2.3166,2.3257,2.3147,2.3149,2.3164,2.3384,2.3392,2.3409,2.3258,2.3261,2.3263,2.3377,0,2.2413,2.2556,2.2582,2.2708,2.2779,2.2786,2.2858,2.2915,2.2948,2.3015,2.3052,2.3129,2.3108,2.3137,2.3192,2.3234,2.3301,2.3226,2.3323,2.3327,2.3303,2.343,2.3439,2.3543,2.3392,2.3395,2.3397,0,2.2559,2.2624,2.2757,2.2826,2.2857,2.2921,2.2997,2.3061,2.3126,2.3147,2.3201,2.3213,2.33,2.326,2.3381,2.3329,2.3371,2.3398,2.3402,2.3412,2.3366,2.3441,2.3577,2.3592,2.3421,2.3419,2.3417,0,2.2627,2.2749,2.2844,2.2878,2.2962,2.3006,2.3044,2.3106,2.3153,2.3221,2.3252,2.333,2.3372,2.3433,2.3466,2.3435,2.3584,2.3547,2.3603,2.3603,2.3634,2.3631,2.3777,2.3663,2.3662,2.3662,2.3662,0,2.2745,2.2825,2.2876,2.2934,2.3024,2.3054,2.3144,2.3181,2.3236,2.3303,2.3314,2.3377,2.3417,2.3486,2.3513,2.3608,2.3628,2.3647,2.3653,2.3645,2.3642,2.3672,2.3665,2.3666,2.3665,2.3665,2.3664,0,2.2836,2.2873,2.2976,2.3047,2.3067,2.313,2.3191,2.3249,2.3282,2.3365,2.3387,2.3439,2.3521,2.356,2.3662,2.368,2.3787,2.3789,2.3764,2.3766,2.3819,2.3813,2.3988,2.4012,2.3883,2.3884,2.3885,0,2.2908,2.297,2.3046,2.3091,2.3128,2.32,2.3248,2.328,2.3329,2.3409,2.3456,2.3538,2.3604,2.3734,2.3782,2.386,2.3863,2.3919,2.3875,2.3865,2.3862,2.3857,2.3863,2.3927,2.3928,2.3929,2.393,0,2.3031,2.3046,2.3113,2.3187,2.3243,2.3304,2.3363,2.3399,2.3441,2.3496,2.3578,2.3629,2.3732,2.3813,2.3894,2.3934,2.3939,2.3943,2.396,2.3952,2.3934,2.3943,2.3784,2.3939,2.3938,2.3937,2.3937,2.3937,2.3114,2.3169,2.3231,2.3305,2.3353,2.3408,2.3465,2.3504,2.3573,2.3657,2.3673,2.376,2.3825,2.3933,2.3976,2.4045,2.4033,2.4058,2.4064,2.4069,2.4071,2.3924,2.4061,2.4061,2.406,2.406,2.406,0,2.3237,2.3277,2.3345,2.3426,2.3485,2.3484,2.3549,2.3599,2.3674,2.3734,2.3798,2.3892,2.3971,2.4024,2.4104,2.4149,2.4153,2.4169,2.4165,2.4174,2.4078,2.4055,2.4164,2.4164,2.4164,2.4164,2.4164,2.4164,2.3307,2.3399,2.3421,2.3538,2.3578,2.3661,2.3699,2.375,2.3797,2.3901,2.3965,2.3999,2.4056,2.414,2.4212,2.4226,2.4254,2.4269,2.4283,2.4192,2.4181,2.4171,2.4149,2.4276,2.4276,2.4373,2.4374,2.4374]},{"header":{"parameterUnit":"m.s-1","parameterCategory":1,"la1":30.2991,"la2":30.254,"lo1":-89.0895,"lo2":-89.0444,"dy":0.0017,"dx":0.0017,"nx":28,"ny":28,"refTime":"2023-07-31T03:00:00:Z","depth":0,"parameterNumber":3,"parameterNumberName":"V-component_of_WINDS"},"data":[0,0,0,0,0,0,0,0,0,0,0,0,0,0,0,0,0,0,0,0,0,0,0,0,0,0,0,0,0,0,0,0,0,0,0,0,0,0,0,0,0,0,0,0,0,0,0,0,0,0,0,0,0,0,0,0,0,0,3.447,3.447,0,3.4495,3.4495,3.4495,3.4493,3.4492,3.4492,3.4492,3.4512,3.4513,3.4514,0,0,0,0,0,0,0,0,0,0,0,0,0,3.4412,3.4413,3.447,3.447,3.4471,3.4495,3.4495,3.4496,3.4493,3.4492,3.4492,3.4491,3.4512,3.4513,3.4514,0,0,0,0,0,0,0,0,0,0,0,0,0,3.4437,3.4413,3.447,3.4472,3.4473,3.4495,3.4495,3.4496,3.4493,3.4492,3.4492,3.4491,3.4512,3.4513,3.4514,3.4534,0,0,3.4519,3.4519,0,0,0,0,0,0,0,0,3.4435,3.4439,3.4472,3.4472,3.4473,3.449,3.4482,3.4508,3.4493,3.4485,3.4492,3.4491,3.4505,3.4507,3.4513,3.4535,3.4536,3.4519,3.4519,3.452,3.452,0,0,0,0,0,0,0,3.4434,3.4438,3.448,3.4472,3.4473,3.4469,3.4472,3.4487,3.4498,3.4486,3.4486,3.4489,3.4505,3.4511,3.4513,3.4536,3.4519,3.452,3.4521,3.4521,3.4569,3.457,0,0,0,0,0,0,3.4432,3.4436,3.4479,3.4481,3.4452,3.4471,3.4474,3.4485,3.4498,3.4499,3.4489,3.4489,3.4509,3.4512,3.4514,3.4534,3.452,3.4521,3.4522,3.4569,3.4569,3.457,0,0,0,0,0,0,3.4431,3.4436,3.4478,3.4458,3.4464,3.4473,3.4485,3.4486,3.4492,3.4501,3.4502,3.4494,3.4509,3.4512,3.4528,3.4535,3.4522,3.4523,3.4568,3.4569,3.4569,3.4577,0,0,0,0,0,0,3.4429,3.4436,3.4446,3.4459,3.4465,3.4495,3.4485,3.4487,3.4495,3.4494,3.4505,3.4507,3.4509,3.4526,3.4529,3.4537,3.4524,3.4568,3.4568,3.4569,3.4576,3.4578,3.4579,0,0,0,0,0,3.4427,3.4448,3.4447,3.4452,3.4478,3.4495,3.4498,3.4502,3.4496,3.4504,3.4508,3.4506,3.4533,3.4528,3.4531,3.4539,3.4567,3.4568,3.4569,3.4575,3.4577,3.4579,0,0,0,0,0,0,3.4436,3.445,3.4449,3.4474,3.4483,3.4495,3.4506,3.4505,3.4515,3.4514,3.4516,3.4518,3.4533,3.4538,3.4531,3.4555,3.4549,3.4551,3.4552,3.4554,3.4556,3.4554,3.4525,0,0,0,0,0,3.444,3.4455,3.4466,3.4487,3.4491,3.4497,3.4505,3.4507,3.4516,3.4519,3.4525,3.4532,3.4542,3.4548,3.4558,3.4576,3.4576,3.4583,3.4584,3.4585,3.4587,3.4592,3.4593,3.4573,3.4573,3.4573,0,0,3.445,3.446,3.4469,3.4488,3.4496,3.4508,3.4501,3.4516,3.4523,3.4521,3.4536,3.454,3.4548,3.4563,3.4571,3.4568,3.4592,3.4587,3.4588,3.4588,3.4593,3.4595,3.4596,3.4574,3.4574,3.4574,0,0,3.4474,3.4485,3.4501,3.4507,3.4518,3.4521,3.4525,3.4535,3.4538,3.4553,3.4549,3.4557,3.4575,3.4579,3.4584,3.4602,3.4599,3.4605,3.4613,3.4618,3.462,3.4621,3.4624,3.4626,3.4607,3.4607,3.4607,0,3.4485,3.4506,3.4509,3.4522,3.4529,3.4527,3.454,3.4546,3.4559,3.4562,3.4559,3.4577,3.4583,3.4597,3.4601,3.4606,3.4607,3.4605,3.4619,3.4621,3.4622,3.4625,3.4627,3.4607,3.4607,3.4607,3.4607,0,3.4516,3.4529,3.4541,3.4553,3.456,3.4574,3.4576,3.4582,3.4581,3.4584,3.4595,3.4601,3.461,3.4613,3.4613,3.4626,3.4623,3.4619,3.4613,3.4624,3.4627,3.4629,3.4608,3.4608,3.4607,3.4607,0,0,3.4549,3.4559,3.4563,3.4566,3.4575,3.4584,3.4595,3.4603,3.4607,3.4615,3.4621,3.4634,3.4629,3.4634,3.4633,3.4638,3.4647,3.4633,3.4633,3.4633,3.4657,3.4658,3.466,3.4645,3.4645,3.4645,3.4655,0,3.4571,3.4593,3.4593,3.4611,3.4621,3.4616,3.4625,3.4629,3.463,3.4636,3.4636,3.4644,3.4639,3.4641,3.4645,3.4645,3.4651,3.4644,3.4648,3.4648,3.4646,3.4662,3.4665,3.4675,3.4657,3.4657,3.4657,0,3.4602,3.4609,3.4628,3.4631,3.4635,3.4643,3.4648,3.4655,3.4658,3.4658,3.466,3.4658,3.4665,3.4658,3.4665,3.466,3.4661,3.466,3.4661,3.4661,3.4653,3.4661,3.4678,3.4679,3.4659,3.4659,3.4659,0,3.4619,3.4634,3.4646,3.4649,3.4654,3.4658,3.466,3.4663,3.4666,3.4669,3.4671,3.4675,3.4677,3.4678,3.4675,3.4671,3.4681,3.4675,3.4679,3.4679,3.4682,3.4681,3.4698,3.4684,3.4684,3.4684,3.4684,0,3.4643,3.4654,3.4653,3.4661,3.4671,3.4669,3.4679,3.468,3.4681,3.4685,3.4681,3.4685,3.4682,3.4684,3.4682,3.4686,3.4687,3.4685,3.4684,3.4685,3.4685,3.4685,3.4684,3.4685,3.4684,3.4684,3.4684,0,3.4665,3.4666,3.4678,3.468,3.468,3.4687,3.4688,3.4692,3.4691,3.4697,3.4698,3.4696,3.4698,3.4695,3.4698,3.4695,3.4701,3.4699,3.47,3.4699,3.4702,3.4701,3.4719,3.472,3.4707,3.4707,3.4707,0,3.468,3.4688,3.469,3.4693,3.4695,3.4701,3.4703,3.47,3.4703,3.4704,3.4707,3.471,3.4711,3.4714,3.4712,3.4712,3.4709,3.4715,3.471,3.4709,3.4707,3.4706,3.4705,3.4716,3.4717,3.4717,3.4717,0,3.4705,3.4704,3.4709,3.4712,3.4715,3.4718,3.472,3.4722,3.4718,3.472,3.4723,3.4724,3.4725,3.4726,3.4725,3.4723,3.4718,3.4718,3.4719,3.472,3.4719,3.4717,3.4702,3.4718,3.4718,3.4718,3.4718,3.4718,3.4722,3.4727,3.4728,3.4732,3.4733,3.4734,3.4737,3.4736,3.4738,3.474,3.4737,3.4739,3.4736,3.4735,3.4733,3.4733,3.473,3.4732,3.4732,3.4732,3.4731,3.4719,3.4733,3.4733,3.4733,3.4733,3.4733,0,3.4744,3.4744,3.4748,3.475,3.4752,3.4747,3.4748,3.4749,3.4752,3.4751,3.4751,3.4752,3.4751,3.4747,3.4745,3.4746,3.4743,3.4745,3.4745,3.4744,3.4735,3.4734,3.4747,3.4747,3.4747,3.4747,3.4747,3.4747,3.4756,3.4763,3.4761,3.4767,3.4766,3.4768,3.4769,3.4768,3.4767,3.4768,3.4767,3.4765,3.4761,3.4758,3.4757,3.4755,3.4754,3.4756,3.4754,3.4746,3.4745,3.4743,3.4742,3.4756,3.4756,3.4762,3.4762,3.4762]}]]